Location: *
(50.8512°N, 5.6907°E)
Time: 03:54:31
(UTC+00:00)

Cosmos 2082 Rocket - Pass Details

Date: 09 April 2020
Orbit: 832 x 855 km, 71.0° (Epoch: 06 June)

Event Time Altitude Azimuth Distance (km) Brightness Sun altitude
Exits shadow 22:14:51 84° 333° (NNW) 851 2.1 -28.4°
Drops below altitude 10° 22:20:26 10° 29° (NNE) 2,474 5.1 -28.7°
Sets 22:22:54 0° 30° (NNE) 3,417 5.9 -28.9°
